FW4407 Weather Reports


Display with metric or nautical units.
time (UTC)temp
F
wind
direction
speed
MPH
gust
MPH
rain 1hr
in
rain 24hr
in
rain mn
in
humidity
%
barometer
mb
20260508033028 65 0.0 0.0 0.00 0.00 0.00 54 1015.9
20260508032056 65 0.0 0.0 0.00 0.00 0.00 54 1015.9
20260508031020 64 0.0 0.0 0.00 0.00 0.00 52 1015.8
20260508030025 64 117 0.0 2.0 0.00 0.00 0.00 56 1015.8
20260508025031 64 0.0 0.0 0.00 0.00 0.00 58 1015.9
20260508024018 64 0.0 0.0 0.00 0.00 0.00 58 1015.9
20260508023043 64 0.0 0.0 0.00 0.00 0.00 59 1016.0
20260508022029 64 0.0 0.0 0.00 0.00 0.00 60 1015.9
20260508021016 64 0.0 0.0 0.00 0.00 0.00 61 1015.9
20260508020021 64 0.0 0.0 0.00 0.00 0.00 61 1016.0
20260508015026 64 0.0 0.0 0.00 0.00 0.00 61 1015.9
20260508014031 64 0.0 0.0 0.00 0.00 0.00 62 1016.2
20260508013019 64 0.0 0.0 0.00 0.00 0.00 63 1016.2
20260508012024 63 0.0 0.0 0.00 0.00 0.00 63 1016.2
20260508011030 63 0.0 0.0 0.00 0.00 0.00 63 1016.5
20260508010017 63 0.0 0.0 0.00 0.00 0.00 64 1016.5
20260508005023 64 0.0 0.0 0.00 0.00 0.00 64 1016.7
20260508004027 64 0.0 0.0 0.00 0.00 0.00 64 1016.6
20260508003016 64 0.0 0.0 0.00 0.00 0.00 64 1016.6
20260508002020 64 0.0 0.0 0.00 0.00 0.00 64 1016.8
20260508001025 64 0.0 0.0 0.00 0.00 0.00 64 1016.7
20260508000030 64 0.0 0.0 0.00 0.00 0.00 64 1016.9
20260507235038 64 0.0 0.0 0.00 0.00 0.00 64 1017.1
20260507234043 64 0.0 0.0 0.00 0.00 0.00 63 1017.3
20260507233028 64 0.0 0.0 0.00 0.00 0.00 62 1017.4
20260507232016 64 0.0 0.0 0.00 0.00 0.00 61 1017.3
20260507231021 64 0.0 0.0 0.00 0.00 0.00 61 1017.3
20260507230026 64 0.0 0.0 0.00 0.00 0.00 60 1017.5
20260507225031 65 0.0 0.0 0.00 0.00 0.00 60 1017.6
20260507224039 65 0.0 0.0 0.00 0.00 0.00 59 1017.6
20260507223024 65 0.0 0.0 0.00 0.00 0.00 58 1017.6
20260507222029 65 0.0 0.0 0.00 0.00 0.00 57 1017.6
20260507221018 65 0.0 0.0 0.00 0.00 0.00 56 1017.6
20260507220022 65 0.0 0.0 0.00 0.00 0.00 55 1017.7
20260507215017 65 0.0 0.0 0.00 0.00 0.00 54 1017.9
20260507214022 66 0.0 0.0 0.00 0.00 0.00 52 1017.9
20260507213047 66 278 0.0 2.0 0.00 0.00 0.00 51 1017.9
20260507212016 66 0.0 0.0 0.00 0.00 0.00 51 1018.2
20260507211020 66 0.0 0.0 0.00 0.00 0.00 50 1018.3
20260507210025 66 0.0 0.0 0.00 0.00 0.00 50 1018.1
20260507205030 66 0.0 0.0 0.00 0.00 0.00 51 1018.1
20260507204038 66 0.0 0.0 0.00 0.00 0.00 51 1017.9
20260507203023 66 0.0 0.0 0.00 0.00 0.00 50 1017.9
20260507202033 66 0.0 0.0 0.00 0.00 0.00 50 1018.0
20260507201016 66 157 0.0 5.0 0.00 0.00 0.00 49 1017.9
20260507200021 66 0.0 0.0 0.00 0.00 0.00 48 1017.9
20260507195046 66 0.0 0.0 0.00 0.00 0.00 48 1018.0
20260507194031 67 132 1.0 5.0 0.00 0.00 0.00 47 1017.7
20260507193019 67 131 1.0 5.0 0.00 0.00 0.00 47 1017.8
20260507192024 67 0.0 0.0 0.00 0.00 0.00 48 1017.6
20260507191029 67 0.0 0.0 0.00 0.00 0.00 49 1017.7
20260507190017 67 0.0 0.0 0.00 0.00 0.00 49 1017.8
20260507185022 67 0.0 0.0 0.00 0.00 0.00 50 1017.9
20260507184027 67 0.0 0.0 0.00 0.00 0.00 49 1017.7
20260507183015 68 0.0 0.0 0.00 0.00 0.00 49 1017.6
20260507182040 68 0.0 0.0 0.00 0.00 0.00 49 1017.6
20260507181045 68 0.0 0.0 0.00 0.00 0.00 47 1017.5
20260507180030 68 0.0 0.0 0.00 0.00 0.00 47 1017.5
20260507175038 69 290 0.0 2.0 0.00 0.00 0.00 46 1017.3
20260507174043 69 15 0.0 2.0 0.00 0.00 0.00 46 1017.5
20260507173048 70 0.0 0.0 0.00 0.00 0.00 47 1017.5
20260507172016 71 0.0 0.0 0.00 0.00 0.00 46 1017.5
20260507171021 71 210 0.0 2.0 0.00 0.00 0.00 36 1017.1
20260507170026 71 0.0 0.0 0.00 0.00 0.00 37 1016.9
20260507165031 72 0.0 0.0 0.00 0.00 0.00 36 1016.8
20260507164039 72 0.0 0.0 0.00 0.00 0.00 36 1016.7
20260507163024 72 185 0.0 5.0 0.00 0.00 0.00 35 1016.8
20260507162029 73 251 0.0 5.0 0.00 0.00 0.00 34 1016.9
20260507161017 73 235 0.0 2.0 0.00 0.00 0.00 34 1017.0
20260507160022 74 254 1.0 5.0 0.00 0.00 0.00 35 1016.9
20260507155027 75 230 0.0 5.0 0.00 0.00 0.00 35 1017.0
20260507154015 75 253 1.0 8.0 0.00 0.00 0.00 33 1017.1
20260507153020 76 244 3.0 10.0 0.00 0.00 0.00 32 1017.3
20260507152025 76 224 2.0 8.0 0.00 0.00 0.00 32 1017.5
20260507151030 76 240 1.0 8.0 0.00 0.00 0.00 32 1017.2
20260507150018 76 253 1.0 10.0 0.00 0.00 0.00 32 1017.4
20260507145023 76 254 1.0 10.0 0.00 0.00 0.00 32 1017.2
20260507144028 76 223 2.0 8.0 0.00 0.00 0.00 32 1017.3
20260507143016 77 240 3.0 10.0 0.00 0.00 0.00 32 1017.3
20260507142021 77 240 3.0 10.0 0.00 0.00 0.00 31 1017.2
20260507141046 78 240 3.0 10.0 0.00 0.00 0.00 30 1017.1
20260507140031 79 237 3.0 10.0 0.00 0.00 0.00 29 1016.9
20260507135019 79 229 3.0 10.0 0.00 0.00 0.00 29 1016.9
20260507134024 78 236 3.0 10.0 0.00 0.00 0.00 29 1016.8
20260507133029 77 237 1.0 8.0 0.00 0.00 0.00 30 1016.8
20260507132017 76 234 2.0 13.0 0.00 0.00 0.00 37 1016.8
20260507131042 75 278 1.0 8.0 0.00 0.00 0.00 41 1016.8
20260507130027 75 258 1.0 5.0 0.00 0.00 0.00 44 1017.1
20260507125015 76 269 2.0 8.0 0.00 0.00 0.00 44 1017.2
20260507124020 76 249 2.0 10.0 0.00 0.00 0.00 43 1017.2
20260507123045 77 245 2.0 8.0 0.00 0.00 0.00 45 1017.2
20260507122030 78 266 2.0 8.0 0.00 0.00 0.00 44 1017.5
20260507121018 78 258 2.0 10.0 0.00 0.00 0.00 43 1017.5
20260507120023 78 20 1.0 5.0 0.00 0.00 0.00 43 1017.5
20260507115028 78 270 2.0 10.0 0.00 0.00 0.00 46 1017.6
20260507114016 78 239 2.0 8.0 0.00 0.00 0.00 45 1017.6
20260507113041 77 244 2.0 8.0 0.00 0.00 0.00 44 1017.6
20260507112027 77 226 3.0 8.0 0.00 0.00 0.00 46 1017.9
20260507111031 77 283 3.0 10.0 0.00 0.00 0.00 49 1017.6
20260507110039 77 275 1.0 8.0 0.00 0.00 0.00 51 1017.6
20260507105024 78 245 3.0 10.0 0.00 0.00 0.00 49 1017.6
20260507104029 78 251 3.0 10.0 0.00 0.00 0.00 46 1017.6
20260507103037 78 243 0.0 8.0 0.00 0.00 0.00 46 1017.2
20260507102022 78 322 0.0 5.0 0.00 0.00 0.00 47 1017.3
20260507101027 78 229 3.0 13.0 0.00 0.00 0.00 43 1017.4
20260507100032 78 285 1.0 5.0 0.00 0.00 0.00 46 1017.3
20260507095020 77 247 2.0 10.0 0.00 0.00 0.00 44 1017.3
20260507094025 78 240 2.0 8.0 0.00 0.00 0.00 41 1017.2
20260507093030 78 243 2.0 8.0 0.00 0.00 0.00 40 1017.3
20260507092018 78 322 2.0 8.0 0.00 0.00 0.00 41 1017.2
20260507091023 77 297 1.0 8.0 0.00 0.00 0.00 40 1017.3
20260507090047 77 181 1.0 8.0 0.00 0.00 0.00 41 1017.2
20260507085015 77 257 1.0 5.0 0.00 0.00 0.00 41 1017.2
20260507084021 77 273 0.0 2.0 0.00 0.00 0.00 40 1017.3
20260507083026 76 273 0.0 2.0 0.00 0.00 0.00 40 1017.3
20260507082051 76 236 1.0 5.0 0.00 0.00 0.00 41 1017.3
20260507081039 75 232 2.0 8.0 0.00 0.00 0.00 43 1017.3
20260507080024 75 273 0.0 5.0 0.00 0.00 0.00 42 1017.4
20260507075028 75 266 1.0 5.0 0.00 0.00 0.00 44 1017.3
20260507074017 75 227 1.0 2.0 0.00 0.00 0.00 45 1017.1
20260507073530 75 0.0 0.0 0.00 0.00 0.00 45 1016.9
20260507072519 75 0.0 0.0 0.00 0.00 0.00 44 1016.9
20260507071523 74 230 1.0 5.0 0.00 0.00 0.00 45 1017.0
20260507070549 74 222 0.0 2.0 0.00 0.00 0.00 45 1017.2
20260507065516 73 235 1.0 5.0 0.00 0.00 0.00 46 1017.2
20260507064522 74 251 2.0 8.0 0.00 0.00 0.00 46 1017.0
20260507063526 73 0.0 0.0 0.00 0.00 0.00 47 1016.9
20260507062531 72 254 1.0 5.0 0.00 0.00 0.00 46 1016.9
20260507061519 71 0.0 0.0 0.00 0.00 0.00 44 1016.9
20260507060524 69 0.0 0.0 0.00 0.00 0.00 47 1016.8
20260507055529 68 0.0 0.0 0.00 0.00 0.00 50 1016.5
20260507054518 68 0.0 0.0 0.00 0.00 0.00 52 1016.5
20260507053523 68 8 0.0 2.0 0.00 0.00 0.00 51 1016.2
20260507052527 67 0.0 0.0 0.00 0.00 0.00 52 1016.2
20260507051516 65 116 0.0 2.0 0.00 0.00 0.00 53 1016.1
20260507050521 63 150 0.0 2.0 0.00 0.00 0.00 54 1016.2
20260507045547 62 0.0 0.0 0.00 0.00 0.00 57 1016.3
20260507044530 62 16 1.0 5.0 0.00 0.00 0.00 59 1016.1
20260507043518 61 0.0 0.0 0.00 0.00 0.00 58 1016.1
20260507042523 60 0.0 0.0 0.00 0.00 0.00 58 1016.1
20260507041528 59 0.0 0.0 0.00 0.00 0.00 61 1016.1
20260507040516 58 0.0 0.0 0.00 0.00 0.00 62 1016.2
20260507035522 58 0.0 0.0 0.00 0.00 0.00 64 1016.2
20260507034526 58 0.0 0.0 0.00 0.00 0.00 65 1016.2